Wind_Speed
2 2 2 2 2 2 2 3 3 4 5 6 6 7 7 7 7 6 5 5 4 4 3 4 4 5 5 5 5 5 5 5 5 5 5 5 6 7 8 8 9 10 10
3 2 2 2 2 3 3 3 4 5 5 6 6 7 7 7 7 7 6 5 5 4 3 3 3 3 4 4 4 4 4 5 5 5 5 5 6 7 8 8 9 9 10
4 3 3 3 3 4 4 5 5 5 6 6 7 7 7 8 7 7 7 6 6 5 4 3 3 2 3 3 3 3 3 3 4 4 4 5 6 7 8 8 9 10 10
3 3 3 4 4 5 5 5 5 6 6 7 7 8 8 8 8 8 7 7 7 6 5 4 3 3 2 2 2 2 2 2 3 3 3 4 5 6 7 8 9 10 10
3 4 5 5 5 6 6 7 7 7 7 7 7 8 8 9 8 8 8 8 8 8 7 6 5 4 3 3 3 2 1 1 2 2 2 4 5 6 7 8 9 9 10
4 5 5 5 6 6 7 7 7 8 8 8 8 9 9 10 10 10 10 9 9 9 9 8 7 6 5 4 4 3 2 1 0 0 1 3 4 6 7 8 9 9 10
4 5 5 5 6 6 7 8 8 9 9 9 10 10 11 11 11 11 11 11 11 11 11 10 9 8 7 6 5 4 3 2 2 1 1 3 4 6 6 7 8 9 9
3 4 5 6 6 7 7 8 9 9 10 11 11 11 12 13 13 13 13 13 13 13 12 12 11 11 9 8 7 6 5 4 4 3 2 3 5 5 6 7 8 8 9
4 4 6 6 8 8 9 9 10 11 11 12 12 13 14 14 15 15 15 15 15 14 14 14 14 13 12 11 10 8 7 6 6 5 5 5 6 6 7 7 8 8 9
6 6 6 7 8 10 10 10 11 11 12 13 13 13 14 15 16 17 17 17 17 17 16 16 15 15 14 13 12 11 9 9 8 8 7 7 7 8 8 9 9 9 9
8 8 7 8 9 10 10 11 11 12 13 14 14 14 15 17 18 19 19 19 19 19 19 19 18 17 16 15 14 13 12 11 11 11 10 10 9 9 10 10 10 10 10
9 8 8 9 10 11 12 12 13 14 15 15 15 16 17 17 18 20 21 21 21 20 21 22 22 20 19 17 16 16 15 14 13 13 13 12 12 11 11 12 12 12 12
10 8 9 11 12 13 13 14 15 16 17 16 16 17 18 18 18 19 20 21 21 21 22 22 23 22 22 21 19 18 17 16 15 16 16 15 14 14 13 14 14 14 14
11 9 9 11 12 13 14 15 16 17 18 18 17 17 18 19 19 19 20 20 21 21 21 22 22 22 23 23 22 21 20 19 18 18 18 18 18 17 16 16 16 16 16
12 11 12 12 14 15 15 16 17 18 19 18 18 18 19 19 19 19 20 20 20 20 21 22 22 23 24 24 24 23 21 20 20 20 20 20 19 18 17 17 17 18 18
13 14 14 14 15 16 16 17 18 18 17 17 17 18 18 19 19 19 18 19 19 20 21 21 22 22 23 24 24 24 23 21 21 21 21 20 20 20 19 20 19 19 19
12 13 14 15 15 15 16 17 17 16 15 16 17 17 17 18 19 18 18 18 18 19 20 21 22 22 23 25 26 25 25 24 24 23 22 22 22 22 21 21 21 22 21
11 12 13 14 15 16 16 16 15 15 15 15 16 16 17 17 18 18 18 18 18 19 19 20 22 22 24 25 27 27 27 26 26 26 25 24 23 23 23 23 23 23 24
11 11 12 13 14 15 15 14 14 15 15 16 16 17 17 18 18 18 18 19 20 19 20 21 21 22 24 25 27 28 29 29 27 27 27 27 26 25 25 25 25 25 26
11 12 13 14 14 14 14 14 14 15 15 15 16 17 17 18 18 19 19 20 20 20 20 21 21 21 23 25 26 27 29 29 29 28 28 29 29 28 27 26 26 27 28
11 11 11 11 12 12 13 13 13 13 14 15 17 17 18 18 18 19 19 20 20 20 21 21 21 22 24 24 25 27 28 29 31 31 29 29 29 30 29 29 28 28 29
10 11 11 11 11 11 12 12 12 13 13 15 16 16 17 17 18 19 19 19 20 20 21 22 23 23 24 25 25 26 27 29 30 31 31 30 30 31 31 31 31 30 30
9 10 10 10 11 11 11 12 12 13 13 14 15 15 16 17 18 18 19 19 20 20 21 22 23 24 25 25 26 26 27 28 29 30 31 32 32 32 33 33 32 32 32
9 10 10 10 11 11 12 12 12 13 13 13 14 14 15 16 17 18 18 19 20 21 21 22 23 24 25 26 26 27 28 28 29 31 32 33 33 33 33 34 34 33 34
10 11 11 12 12 12 12 12 13 13 13 14 14 14 15 16 16 17 18 19 20 21 22 22 23 24 25 26 27 28 29 30 31 32 33 33 34 34 35 35 35 35 36
12 12 13 13 13 13 13 13 13 13 14 14 14 14 15 15 16 17 18 18 19 21 22 22 23 24 25 26 27 28 30 31 32 33 34 35 36 36 36 36 37 37 38
Wind_Direction
5 22 22 3 352 338 331 323 319 321 324 327 329 330 333 338 341 345 348 351 0 14 27 36 40 46 51 60 64 70 70 74 84 86 95 97 102 105 109 113 120 117 115
344 348 342 328 319 310 302 299 300 303 306 311 314 315 318 322 325 328 331 334 337 343 354 10 22 30 36 47 56 62 63 67 74 84 94 105 107 109 112 115 121 121 118
333 324 304 302 304 300 293 288 289 293 296 299 301 302 306 309 312 315 315 317 320 323 325 331 341 352 11 28 39 48 56 63 70 84 94 104 111 114 117 120 124 122 120
313 307 298 298 295 290 284 282 284 284 286 289 290 292 296 299 301 302 304 304 304 303 303 304 307 312 324 342 2 20 41 56 66 81 95 104 115 121 124 125 128 127 125
297 289 288 288 285 282 280 277 277 278 280 281 282 284 287 291 294 294 294 295 294 293 293 291 291 290 292 299 310 332 1 43 67 87 105 112 124 130 130 129 133 134 133
282 281 284 285 281 281 280 277 276 276 278 278 278 279 279 280 283 284 284 285 286 286 286 285 283 280 278 281 289 299 303 304 111 113 132 139 137 141 140 137 136 137 137
277 272 279 284 282 282 281 279 278 275 274 276 275 274 273 273 275 276 277 277 278 278 278 279 278 274 271 270 272 276 279 261 242 228 170 165 155 155 153 148 145 144 145
263 257 271 283 282 282 283 282 280 277 275 276 275 271 270 269 268 269 270 271 273 273 272 273 273 270 268 264 262 260 257 253 242 231 220 192 174 171 168 162 159 156 154
264 273 271 273 276 276 281 284 282 281 281 280 277 273 271 267 265 264 265 267 268 269 268 269 269 268 265 261 256 253 249 247 246 236 232 216 199 192 187 180 175 172 166
265 270 276 280 282 281 281 285 286 282 284 284 281 275 273 270 265 263 263 264 265 266 265 266 267 266 263 260 255 251 247 245 245 240 236 230 218 208 201 195 188 185 181
270 263 270 284 287 286 284 288 288 284 283 282 279 278 278 272 267 265 265 263 262 261 261 262 262 263 261 258 253 250 247 246 247 244 239 236 228 220 213 206 200 195 194
266 260 270 279 282 283 284 286 287 285 281 282 280 277 278 274 269 267 266 265 264 262 260 259 258 258 257 255 253 250 248 246 245 244 241 236 234 226 221 216 209 205 202
268 259 266 273 273 279 282 284 286 285 282 280 278 276 276 273 272 271 268 267 265 263 261 259 257 256 255 254 253 251 249 248 245 243 241 239 237 232 228 224 216 211 209
268 274 275 277 278 282 280 283 286 285 283 279 277 277 277 275 274 272 271 270 266 263 263 260 255 256 255 253 252 251 250 248 247 244 242 240 237 233 232 228 222 216 212
280 289 283 281 288 288 284 289 291 286 281 278 275 277 276 275 274 272 271 270 267 262 262 262 259 256 253 251 251 250 252 249 246 243 242 241 236 236 233 229 227 221 216
281 287 288 286 292 294 295 295 293 290 284 278 276 276 274 273 273 274 272 269 268 264 262 262 259 257 253 250 248 248 250 249 247 245 246 241 240 236 234 229 228 226 221
295 294 292 292 294 293 296 296 294 289 285 281 278 275 274 272 273 274 272 271 269 266 263 261 258 256 252 249 248 247 247 249 246 244 244 243 242 238 236 233 229 227 225
302 301 297 295 295 295 295 294 291 287 285 283 280 277 275 273 272 273 271 270 269 266 264 262 258 254 252 250 249 249 249 249 246 243 243 243 242 242 240 237 231 228 227
309 307 304 301 298 296 296 293 290 290 289 285 284 281 278 277 275 271 270 268 267 266 264 262 259 255 253 251 250 250 249 248 247 244 242 241 241 241 241 241 236 230 228
316 309 303 300 299 299 300 296 293 293 291 289 287 284 279 276 274 272 270 269 268 266 265 261 258 255 253 252 252 252 250 249 248 246 244 242 241 242 242 240 236 233 231
319 313 314 313 311 303 301 298 296 293 290 288 287 286 282 278 275 275 274 272 268 267 265 263 260 257 255 253 252 252 250 248 248 247 246 243 242 242 240 238 237 237 234
327 321 318 319 318 314 310 305 301 298 293 289 288 286 283 280 278 276 275 272 269 266 265 263 262 260 257 255 253 252 251 249 248 246 245 244 243 242 240 239 239 237 235
337 332 332 331 329 327 322 313 308 305 302 298 294 290 287 284 281 278 275 274 272 270 267 265 263 261 259 257 255 253 251 251 249 246 245 245 245 244 240 238 239 237 235
352 350 348 346 342 337 332 326 321 317 312 307 303 298 295 291 288 284 280 277 274 272 270 267 265 263 261 259 257 255 253 252 251 248 246 245 245 243 242 241 239 237 236
3 1 357 354 348 342 337 331 326 322 318 314 309 305 300 295 291 288 285 281 277 275 273 271 269 266 264 263 261 258 256 254 253 250 248 246 245 243 243 242 241 238 236
6 2 357 353 347 342 339 336 333 329 324 319 315 311 308 303 298 294 291 286 283 280 278 275 273 270 268 266 264 262 260 257 255 252 250 248 247 244 243 242 241 239 236
Height
5908 5907 5907 5907 5907 5908 5907 5907 5907 5908 5908 5907 5907 5907 5907 5906 5906 5906 5905 5905 5904 5904 5904 5903 5903 5903 5902 5902 5902 5902 5901 5901 5901 5901 5900 5900 5900 5900 5900 5900 5900 5900 5900
5908 5907 5907 5907 5907 5907 5907 5906 5906 5907 5907 5907 5907 5906 5906 5906 5906 5905 5905 5905 5904 5904 5904 5904 5903 5903 5903 5903 5903 5902 5902 5902 5902 5902 5901 5901 5901 5901 5901 5901 5901 5901 5901
5907 5906 5907 5906 5906 5906 5906 5906 5905 5905 5906 5905 5905 5905 5905 5905 5905 5905 5905 5905 5904 5904 5904 5904 5903 5903 5903 5903 5903 5903 5903 5903 5903 5903 5902 5902 5902 5902 5902 5902 5902 5902 5903
5905 5905 5905 5905 5905 5905 5905 5904 5904 5904 5904 5904 5904 5904 5904 5904 5904 5904 5904 5904 5904 5904 5903 5903 5903 5903 5903 5903 5903 5903 5903 5903 5903 5903 5903 5903 5903 5903 5903 5903 5904 5904 5905
5903 5904 5904 5904 5903 5903 5903 5903 5903 5902 5902 5902 5902 5902 5902 5903 5903 5903 5903 5903 5903 5903 5903 5903 5903 5903 5903 5903 5903 5903 5903 5903 5904 5904 5904 5904 5904 5904 5904 5905 5905 5906 5906
5901 5902 5902 5902 5902 5901 5901 5901 5901 5901 5900 5900 5900 5900 5900 5901 5901 5901 5901 5902 5902 5902 5902 5902 5902 5902 5902 5902 5903 5903 5903 5903 5903 5904 5904 5904 5905 5905 5905 5906 5906 5907 5907
5899 5899 5900 5900 5899 5899 5899 5899 5898 5898 5898 5898 5898 5898 5898 5898 5898 5899 5899 5899 5900 5900 5900 5900 5900 5901 5901 5902 5902 5902 5903 5903 5903 5903 5904 5904 5905 5905 5906 5907 5907 5908 5909
5896 5896 5897 5897 5896 5896 5896 5896 5896 5896 5896 5895 5895 5895 5895 5896 5896 5896 5896 5897 5897 5898 5898 5898 5898 5899 5899 5900 5901 5901 5902 5902 5903 5903 5904 5904 5905 5906 5906 5907 5908 5909 5910
5893 5894 5894 5894 5894 5894 5893 5893 5893 5893 5893 5892 5892 5892 5892 5892 5893 5893 5893 5894 5894 5895 5895 5896 5896 5896 5897 5898 5899 5899 5900 5901 5902 5902 5903 5903 5904 5905 5906 5907 5908 5909 5910
5889 5891 5892 5891 5891 5891 5891 5890 5890 5890 5890 5889 5889 5889 5889 5889 5889 5890 5890 5890 5891 5892 5892 5893 5893 5894 5894 5895 5896 5897 5898 5899 5900 5901 5901 5902 5903 5904 5905 5906 5907 5909 5910
5886 5887 5888 5889 5889 5888 5888 5888 5887 5887 5887 5886 5886 5886 5885 5885 5885 5886 5886 5886 5887 5888 5889 5889 5889 5890 5891 5892 5893 5894 5895 5896 5897 5898 5899 5900 5901 5902 5904 5905 5906 5908 5909
5884 5884 5885 5885 5886 5886 5885 5885 5885 5884 5883 5882 5882 5882 5882 5881 5881 5882 5882 5882 5883 5883 5884 5885 5885 5886 5887 5888 5890 5891 5892 5893 5894 5895 5897 5898 5899 5900 5902 5903 5904 5906 5908
5880 5879 5881 5882 5882 5882 5882 5882 5881 5880 5879 5879 5878 5877 5877 5877 5877 5877 5877 5878 5878 5879 5879 5880 5881 5882 5883 5884 5885 5887 5888 5889 5891 5892 5893 5895 5896 5898 5899 5900 5902 5904 5906
5877 5877 5877 5877 5877 5877 5878 5877 5877 5876 5875 5874 5874 5873 5873 5872 5873 5873 5873 5873 5873 5874 5874 5875 5876 5877 5878 5879 5881 5882 5883 5885 5887 5888 5889 5891 5892 5894 5896 5897 5899 5901 5903
5875 5874 5874 5874 5874 5874 5873 5873 5872 5871 5870 5870 5869 5869 5868 5868 5868 5868 5868 5868 5868 5868 5869 5870 5871 5871 5873 5874 5875 5877 5878 5880 5882 5883 5885 5887 5888 5890 5892 5894 5896 5898 5900
5871 5870 5870 5869 5870 5869 5869 5868 5868 5866 5866 5865 5865 5864 5864 5863 5863 5863 5862 5863 5862 5863 5864 5865 5866 5866 5867 5869 5871 5872 5873 5874 5876 5878 5880 5882 5884 5886 5888 5890 5892 5894 5896
5867 5867 5867 5866 5866 5865 5864 5864 5863 5862 5861 5860 5860 5859 5859 5858 5858 5858 5858 5858 5858 5858 5858 5859 5860 5861 5862 5864 5865 5866 5868 5869 5871 5873 5875 5877 5879 5881 5883 5885 5887 5890 5893
5865 5865 5864 5863 5862 5861 5860 5860 5859 5858 5857 5856 5855 5855 5854 5853 5853 5853 5853 5853 5853 5853 5853 5854 5855 5856 5857 5858 5859 5861 5862 5863 5865 5867 5870 5872 5874 5876 5879 5881 5883 5885 5888
5862 5862 5860 5859 5858 5857 5856 5855 5855 5854 5853 5852 5851 5850 5850 5849 5848 5848 5848 5848 5848 5848 5848 5849 5849 5850 5851 5852 5853 5855 5856 5858 5859 5861 5863 5866 5868 5870 5873 5875 5878 5880 5883
5860 5859 5858 5856 5855 5854 5852 5852 5851 5850 5848 5847 5846 5846 5845 5844 5844 5843 5843 5843 5842 5843 5843 5843 5844 5844 5845 5846 5847 5848 5850 5851 5853 5855 5857 5859 5862 5864 5867 5869 5872 5874 5877
5858 5856 5854 5853 5852 5851 5849 5848 5847 5846 5845 5843 5842 5841 5840 5839 5838 5838 5837 5837 5837 5837 5837 5837 5838 5838 5839 5840 5841 5842 5843 5845 5846 5848 5850 5853 5855 5858 5860 5863 5865 5868 5870
5856 5854 5852 5851 5849 5848 5846 5845 5844 5842 5841 5840 5838 5836 5835 5834 5833 5833 5832 5832 5832 5831 5831 5832 5832 5832 5833 5834 5835 5835 5837 5839 5840 5841 5843 5845 5848 5850 5853 5856 5858 5861 5864
5854 5852 5850 5849 5847 5845 5843 5842 5841 5839 5837 5835 5834 5832 5831 5829 5828 5827 5827 5827 5826 5826 5826 5826 5825 5826 5826 5827 5828 5829 5830 5831 5833 5834 5836 5838 5840 5842 5845 5848 5851 5854 5856
5853 5850 5849 5847 5845 5843 5841 5839 5837 5835 5833 5832 5830 5828 5826 5825 5823 5822 5821 5821 5820 5820 5819 5819 5819 5819 5819 5820 5821 5822 5823 5824 5825 5827 5828 5830 5832 5834 5837 5840 5843 5846 5849
5851 5849 5847 5845 5842 5841 5838 5836 5834 5832 5830 5828 5826 5824 5822 5820 5818 5817 5816 5815 5814 5813 5813 5813 5812 5812 5812 5812 5813 5814 5815 5816 5817 5818 5820 5822 5824 5826 5829 5831 5834 5837 5841
5849 5847 5845 5843 5840 5838 5836 5834 5831 5829 5827 5824 5822 5820 5818 5816 5814 5812 5810 5809 5808 5807 5806 5806 5805 5805 5805 5805 5805 5805 5806 5807 5808 5810 5812 5813 5815 5817 5820 5823 5825 5828 5831